Temp
-6 -6 -6 -6 -7 -7 -6 -6 -7 -7 -7 -7 -7 -6 -7 -7 -7 -7 -7 -7 -7 -7 -7 -7 -7 -7 -7 -7 -7 -7 -6 -6 -6 -7 -7 -7 -7 -7 -7 -7 -7 -7 -6
-7 -7 -7 -6 -6 -6 -7 -7 -6 -6 -6 -7 -7 -7 -7 -7 -7 -7 -7 -7 -7 -7 -7 -7 -7 -7 -7 -7 -7 -7 -7 -7 -8 -7 -7 -7 -7 -7 -7 -7 -7 -7 -7
-7 -6 -6 -6 -6 -7 -7 -7 -7 -7 -6 -6 -6 -7 -7 -7 -7 -7 -7 -7 -7 -7 -7 -7 -7 -7 -7 -7 -7 -7 -7 -6 -7 -7 -7 -7 -7 -7 -7 -7 -7 -6 -6
-7 -7 -7 -7 -7 -6 -6 -6 -6 -6 -6 -6 -6 -7 -7 -7 -7 -7 -7 -7 -7 -7 -7 -7 -7 -7 -7 -7 -8 -8 -7 -7 -7 -7 -7 -7 -7 -7 -7 -7 -6 -6 -6
-7 -7 -7 -7 -7 -7 -7 -7 -6 -6 -6 -6 -6 -6 -6 -6 -6 -6 -6 -6 -7 -6 -6 -7 -7 -7 -7 -7 -7 -7 -7 -7 -7 -7 -7 -7 -7 -7 -7 -7 -6 -7 -7
-7 -7 -7 -7 -6 -6 -6 -7 -7 -7 -7 -6 -6 -6 -6 -7 -7 -7 -7 -6 -6 -6 -6 -6 -7 -6 -6 -7 -7 -7 -7 -7 -8 -7 -7 -7 -7 -7 -7 -7 -6 -7 -7
-8 -7 -7 -7 -6 -6 -6 -6 -6 -6 -7 -6 -6 -6 -6 -6 -6 -7 -7 -7 -7 -7 -7 -7 -7 -7 -7 -7 -7 -7 -7 -7 -7 -7 -7 -7 -7 -7 -7 -7 -7 -7 -7
-8 -8 -8 -7 -7 -7 -6 -6 -7 -6 -6 -6 -6 -6 -6 -7 -6 -7 -7 -7 -7 -6 -7 -7 -7 -7 -7 -7 -7 -7 -7 -7 -7 -7 -7 -7 -7 -7 -7 -7 -7 -7 -7
-8 -8 -8 -7 -7 -7 -7 -7 -6 -7 -7 -6 -6 -6 -6 -7 -7 -7 -7 -6 -6 -7 -7 -7 -7 -7 -7 -7 -7 -7 -7 -7 -7 -7 -7 -8 -7 -7 -7 -7 -7 -7 -7
-8 -8 -8 -8 -7 -7 -7 -7 -7 -7 -7 -7 -6 -6 -6 -6 -6 -7 -7 -6 -6 -7 -7 -8 -8 -7 -7 -7 -7 -7 -7 -7 -7 -7 -7 -7 -7 -7 -7 -7 -7 -7 -7
-9 -8 -8 -8 -8 -8 -7 -7 -7 -7 -7 -7 -7 -6 -6 -6 -6 -6 -7 -6 -6 -6 -7 -7 -8 -7 -7 -7 -7 -7 -7 -7 -7 -7 -7 -7 -7 -7 -7 -7 -7 -7 -7
-9 -8 -8 -8 -8 -8 -8 -8 -8 -7 -7 -7 -6 -7 -6 -6 -6 -6 -6 -6 -6 -6 -7 -7 -7 -7 -7 -7 -7 -6 -7 -7 -7 -7 -7 -7 -7 -7 -7 -7 -8 -7 -7
-9 -9 -8 -8 -8 -8 -8 -8 -7 -7 -7 -7 -6 -6 -6 -6 -6 -6 -6 -6 -6 -6 -6 -7 -7 -7 -7 -7 -6 -6 -7 -7 -7 -7 -7 -7 -8 -7 -7 -7 -7 -7 -7
-9 -9 -8 -8 -8 -8 -7 -7 -7 -7 -6 -6 -6 -6 -6 -6 -6 -6 -6 -6 -6 -6 -6 -6 -6 -7 -7 -7 -7 -7 -7 -7 -7 -7 -7 -7 -7 -7 -7 -7 -7 -7 -8
-9 -9 -8 -8 -8 -8 -8 -8 -8 -8 -7 -7 -7 -6 -6 -6 -6 -6 -6 -6 -6 -6 -6 -6 -7 -7 -7 -7 -7 -8 -8 -7 -7 -7 -7 -7 -7 -7 -7 -7 -7 -7 -7
-9 -9 -9 -8 -8 -8 -9 -8 -8 -8 -8 -8 -7 -7 -7 -6 -6 -6 -6 -6 -7 -7 -6 -6 -7 -7 -7 -7 -7 -7 -7 -8 -7 -7 -7 -7 -7 -7 -7 -7 -7 -7 -7
-9 -9 -9 -8 -8 -9 -9 -9 -9 -9 -9 -9 -8 -8 -8 -7 -7 -7 -7 -7 -8 -8 -7 -7 -7 -7 -7 -7 -7 -8 -7 -7 -7 -7 -7 -7 -7 -7 -7 -7 -7 -7 -7
-9 -9 -9 -9 -10 -10 -10 -10 -10 -9 -9 -9 -9 -9 -8 -8 -8 -8 -8 -8 -8 -8 -8 -8 -7 -7 -7 -7 -8 -7 -7 -7 -7 -7 -7 -7 -7 -7 -7 -7 -7 -7 -8
-9 -9 -9 -10 -10 -10 -10 -10 -10 -10 -9 -9 -8 -8 -8 -8 -8 -8 -9 -9 -8 -8 -8 -8 -8 -8 -8 -7 -7 -7 -7 -7 -8 -7 -8 -8 -8 -8 -8 -8 -8 -9 -9
-10 -10 -10 -10 -11 -11 -11 -10 -10 -10 -10 -9 -8 -8 -9 -9 -9 -8 -8 -9 -9 -9 -9 -9 -8 -8 -8 -7 -7 -7 -7 -7 -8 -8 -8 -8 -8 -9 -9 -9 -9 -9 -10
-10 -11 -11 -11 -11 -11 -10 -11 -11 -11 -11 -11 -9 -9 -11 -9 -10 -9 -9 -9 -9 -9 -9 -9 -9 -8 -8 -7 -7 -7 -8 -8 -8 -9 -9 -10 -10 -9 -9 -10 -11 -12 -12
-11 -11 -11 -11 -11 -11 -11 -11 -11 -11 -11 -11 -12 -11 -11 -10 -10 -10 -10 -9 -9 -9 -9 -8 -8 -9 -9 -8 -9 -9 -9 -10 -10 -10 -11 -11 -12 -12 -12 -11 -11 -11 -11
-11 -11 -10 -11 -11 -11 -11 -11 -11 -11 -11 -11 -11 -11 -12 -12 -12 -12 -12 -12 -12 -11 -10 -11 -12 -12 -11 -11 -11 -11 -11 -12 -11 -11 -11 -11 -11 -11 -11 -11 -11 -12 -12
-11 -11 -11 -11 -11 -11 -11 -11 -11 -11 -11 -11 -11 -12 -12 -12 -12 -12 -12 -12 -12 -12 -12 -11 -11 -11 -11 -11 -11 -11 -11 -11 -11 -11 -11 -11 -11 -11 -12 -12 -12 -12 -12
-12 -12 -12 -12 -12 -12 -12 -12 -12 -12 -12 -12 -12 -12 -12 -12 -12 -12 -12 -12 -12 -12 -12 -12 -11 -11 -11 -11 -12 -12 -11 -11 -11 -11 -11 -11 -12 -12 -12 -12 -12 -12 -12
-12 -12 -12 -12 -12 -12 -12 -12 -12 -12 -12 -12 -12 -12 -12 -12 -12 -12 -12 -12 -12 -11 -11 -11 -11 -11 -11 -12 -12 -12 -12 -12 -12 -12 -12 -12 -12 -12 -12 -12 -12 -12 -13
Height
5884 5886 5886 5888 5889 5890 5891 5892 5893 5895 5896 5897 5898 5899 5900 5901 5902 5902 5903 5903 5904 5905 5906 5907 5907 5909 5909 5909 5909 5909 5908 5909 5910 5910 5909 5908 5908 5907 5906 5906 5905 5903 5902
5883 5884 5885 5886 5887 5888 5889 5890 5891 5892 5893 5894 5895 5896 5897 5897 5898 5898 5899 5899 5900 5901 5903 5904 5904 5905 5907 5907 5907 5907 5907 5907 5911 5908 5906 5906 5906 5906 5905 5904 5903 5902 5901
5881 5882 5883 5884 5885 5885 5886 5887 5887 5888 5889 5890 5891 5891 5892 5893 5894 5894 5894 5895 5896 5896 5898 5899 5900 5901 5902 5903 5903 5903 5904 5904 5904 5904 5903 5903 5903 5903 5902 5902 5901 5900 5899
5877 5878 5879 5881 5881 5881 5882 5882 5883 5883 5883 5884 5885 5886 5886 5887 5888 5888 5889 5890 5891 5892 5892 5894 5895 5896 5897 5897 5897 5899 5900 5901 5901 5901 5901 5900 5900 5900 5899 5898 5898 5896 5895
5872 5873 5874 5874 5875 5876 5876 5876 5877 5877 5878 5878 5879 5880 5881 5882 5882 5882 5883 5884 5885 5887 5888 5888 5889 5890 5891 5892 5893 5894 5895 5896 5896 5896 5898 5897 5896 5896 5896 5895 5894 5893 5892
5868 5867 5867 5868 5869 5869 5870 5869 5870 5871 5871 5872 5873 5873 5874 5875 5876 5877 5878 5879 5880 5881 5882 5883 5883 5885 5886 5887 5888 5888 5890 5890 5890 5892 5891 5891 5890 5892 5892 5890 5889 5889 5888
5864 5864 5863 5863 5862 5862 5863 5864 5864 5864 5864 5865 5866 5866 5867 5868 5869 5870 5870 5871 5872 5874 5876 5877 5878 5878 5879 5880 5881 5882 5884 5884 5885 5886 5885 5885 5884 5886 5887 5886 5886 5885 5883
5858 5857 5857 5856 5856 5856 5856 5855 5856 5857 5858 5858 5858 5858 5859 5860 5861 5862 5862 5863 5865 5867 5867 5869 5871 5871 5873 5873 5874 5876 5877 5878 5878 5878 5880 5879 5880 5881 5880 5880 5880 5879 5878
5854 5853 5851 5849 5848 5847 5848 5848 5848 5848 5850 5850 5851 5851 5852 5852 5853 5854 5854 5855 5856 5858 5859 5860 5861 5863 5864 5866 5866 5868 5869 5871 5872 5871 5873 5873 5874 5874 5874 5873 5873 5873 5872
5849 5848 5847 5845 5843 5841 5841 5840 5841 5840 5840 5840 5842 5843 5843 5843 5844 5845 5845 5846 5848 5850 5852 5851 5849 5851 5854 5855 5857 5859 5861 5862 5864 5863 5865 5866 5866 5865 5866 5866 5865 5865 5864
5843 5842 5840 5838 5836 5834 5832 5831 5831 5831 5830 5831 5832 5833 5834 5834 5834 5835 5837 5838 5839 5840 5842 5842 5841 5842 5844 5845 5846 5849 5852 5851 5854 5855 5855 5856 5858 5857 5857 5857 5857 5857 5856
5836 5835 5833 5830 5828 5826 5824 5822 5821 5820 5820 5820 5821 5822 5823 5824 5824 5825 5826 5828 5829 5831 5833 5833 5832 5833 5834 5832 5831 5835 5840 5840 5843 5844 5847 5847 5848 5848 5847 5848 5848 5848 5847
5828 5826 5825 5822 5819 5817 5815 5812 5809 5808 5808 5808 5809 5811 5811 5812 5813 5815 5816 5817 5818 5821 5822 5822 5824 5824 5824 5822 5818 5823 5828 5829 5832 5834 5838 5840 5836 5838 5839 5838 5838 5837 5837
5820 5817 5815 5813 5810 5806 5803 5800 5798 5797 5797 5797 5798 5799 5800 5801 5801 5802 5803 5805 5807 5808 5810 5811 5813 5814 5815 5814 5811 5813 5817 5819 5820 5822 5825 5829 5826 5828 5827 5827 5827 5827 5827
5811 5808 5806 5803 5799 5796 5792 5791 5788 5786 5785 5785 5785 5787 5787 5788 5789 5789 5791 5793 5794 5797 5799 5800 5801 5804 5805 5805 5806 5807 5808 5809 5807 5809 5812 5815 5816 5816 5816 5815 5815 5815 5815
5803 5800 5797 5794 5789 5785 5783 5782 5780 5777 5775 5774 5774 5775 5775 5776 5777 5777 5779 5780 5782 5785 5787 5789 5791 5794 5795 5795 5797 5798 5800 5800 5799 5799 5802 5804 5804 5803 5801 5800 5801 5802 5802
5795 5792 5788 5782 5779 5776 5774 5773 5773 5770 5767 5766 5764 5763 5763 5764 5765 5766 5767 5769 5770 5773 5775 5777 5780 5783 5784 5786 5787 5788 5790 5790 5789 5790 5791 5792 5792 5791 5791 5789 5790 5791 5789
5787 5783 5778 5773 5769 5768 5768 5767 5766 5762 5760 5758 5756 5755 5754 5754 5754 5755 5756 5758 5760 5762 5764 5765 5769 5772 5774 5776 5777 5778 5779 5778 5778 5778 5777 5778 5778 5778 5777 5778 5780 5780 5780
5779 5774 5768 5764 5762 5762 5761 5761 5759 5755 5752 5750 5749 5748 5747 5745 5745 5746 5748 5749 5750 5752 5754 5756 5758 5761 5764 5766 5767 5768 5768 5768 5767 5770 5767 5766 5767 5765 5766 5768 5770 5771 5771
5771 5766 5761 5758 5757 5757 5757 5754 5752 5749 5747 5743 5740 5741 5740 5738 5738 5739 5741 5741 5742 5743 5745 5748 5749 5752 5755 5756 5757 5758 5758 5759 5759 5760 5757 5757 5758 5758 5760 5761 5762 5763 5764
5765 5763 5758 5756 5754 5753 5751 5749 5749 5748 5744 5739 5733 5732 5736 5736 5735 5734 5733 5734 5736 5736 5738 5741 5743 5745 5745 5746 5747 5748 5747 5747 5748 5749 5753 5752 5752 5752 5754 5754 5755 5757 5760
5763 5760 5758 5756 5753 5751 5750 5749 5748 5746 5744 5741 5735 5731 5730 5732 5732 5730 5729 5724 5732 5732 5733 5735 5736 5736 5736 5737 5735 5737 5739 5741 5740 5741 5744 5744 5745 5746 5750 5750 5753 5755 5756
5757 5757 5755 5754 5752 5750 5749 5748 5747 5745 5744 5743 5740 5737 5733 5731 5729 5728 5727 5723 5724 5729 5730 5734 5734 5732 5734 5734 5738 5738 5740 5739 5740 5739 5740 5742 5744 5744 5745 5747 5749 5749 5749
5753 5753 5752 5752 5750 5749 5747 5746 5745 5744 5743 5742 5741 5740 5737 5736 5734 5733 5732 5732 5732 5733 5734 5735 5737 5738 5739 5737 5740 5740 5741 5740 5737 5740 5739 5738 5739 5741 5741 5741 5742 5743 5743
5749 5748 5748 5747 5747 5746 5745 5744 5743 5742 5742 5741 5740 5739 5738 5737 5736 5735 5735 5735 5736 5736 5737 5737 5738 5739 5739 5739 5739 5739 5739 5738 5740 5739 5738 5736 5735 5736 5736 5736 5737 5737 5737
5744 5743 5743 5743 5742 5741 5741 5740 5739 5739 5739 5739 5739 5738 5737 5737 5736 5736 5735 5736 5736 5736 5736 5736 5736 5736 5735 5735 5735 5735 5736 5736 5736 5735 5732 5731 5731 5731 5731 5731 5731 5731 5729
Wind_Speed
8 11 13 13 12 12 13 13 14 13 15 15 14 13 12 12 15 15 13 12 12 14 15 14 14 12 12 12 12 12 13 12 11 11 11 9 9 10 9 10 10 9 10
9 10 10 12 12 13 14 14 13 16 17 17 17 17 17 17 15 15 16 13 15 16 16 16 16 15 14 14 14 14 15 13 12 12 13 11 11 11 12 12 11 10 12
9 10 11 13 14 15 16 15 15 16 17 19 20 21 21 19 19 20 20 20 19 18 18 20 17 17 16 17 18 16 16 16 15 15 14 13 12 12 13 12 10 12 13
16 16 15 15 15 16 17 18 19 20 21 21 21 23 22 23 23 23 23 25 23 22 21 20 19 19 20 21 22 18 18 17 18 18 16 14 14 13 14 13 13 12 12
15 16 17 17 18 20 21 21 21 21 21 20 21 23 26 27 27 28 26 26 26 25 25 23 22 20 22 21 21 21 20 24 24 22 20 20 17 16 15 16 16 15 15
17 20 20 20 20 19 19 21 19 20 23 25 24 23 26 25 27 28 30 28 29 28 27 28 26 24 24 23 23 24 23 24 20 23 24 22 19 17 18 19 19 18 18
18 20 22 23 24 25 23 21 24 23 23 23 25 29 27 26 28 27 29 31 31 31 29 29 29 29 28 27 27 27 26 25 25 25 24 25 18 20 20 21 20 21 22
22 24 25 25 26 26 27 28 27 24 24 24 26 28 30 32 30 32 32 33 31 33 33 32 32 33 31 33 32 30 30 30 28 28 26 25 24 24 26 24 24 24 24
22 25 27 30 31 30 30 29 30 30 27 27 27 29 30 31 31 33 35 34 31 33 36 32 38 38 36 35 37 35 34 33 31 32 29 29 29 29 27 28 27 26 27
26 26 28 29 31 33 33 32 31 32 33 31 30 30 32 33 32 32 34 34 34 35 38 39 33 37 35 36 40 40 38 36 34 36 33 33 33 33 31 31 32 30 31
27 28 30 30 30 31 32 32 32 33 35 35 33 34 34 35 36 34 33 34 32 33 33 36 36 35 33 37 43 46 43 43 40 38 38 37 36 37 36 36 36 36 35
29 29 31 31 31 31 32 34 35 36 36 37 37 35 36 37 38 38 36 34 34 31 32 36 38 37 38 43 45 45 44 46 44 43 41 40 40 40 40 39 39 40 40
32 33 34 34 33 33 35 39 41 41 39 40 39 39 38 37 40 41 41 39 37 34 35 38 37 39 39 36 34 39 44 46 45 45 43 42 44 44 42 41 38 37 38
39 37 37 36 34 37 41 39 39 41 41 40 39 39 40 40 41 40 41 43 43 41 39 40 39 38 38 34 31 32 40 45 50 48 43 44 46 45 44 44 42 41 40
37 36 34 36 36 38 35 32 31 29 33 38 40 40 39 40 39 43 43 44 43 42 42 42 41 38 38 38 36 38 41 37 39 44 40 39 42 43 46 50 49 51 47
35 35 34 37 38 36 30 31 29 26 27 30 33 34 34 40 42 41 43 43 42 40 41 42 40 39 39 39 40 42 40 43 37 40 41 43 43 41 40 47 56 50 51
35 32 34 37 36 28 27 27 23 23 22 23 25 28 30 32 34 38 40 41 41 39 40 43 40 39 39 39 40 39 40 41 37 40 41 45 43 44 45 46 41 47 46
30 32 36 36 28 24 24 26 22 23 22 25 26 26 26 29 31 33 36 39 39 37 37 40 39 37 39 39 37 38 37 34 38 32 37 44 49 54 53 52 47 46 43
28 32 34 26 22 23 23 24 24 25 27 25 24 23 21 22 23 24 24 27 30 32 33 35 36 36 37 38 37 34 36 33 31 42 51 45 45 41 39 41 43 39 44
27 29 25 19 19 19 21 23 21 20 24 26 24 22 19 19 16 18 22 23 26 25 25 26 28 30 30 32 33 35 34 35 36 42 33 34 38 28 31 33 39 31 16
22 22 15 11 11 14 14 10 8 11 15 21 16 19 17 18 20 18 19 24 23 19 20 20 23 26 27 29 28 28 29 30 27 21 30 33 38 42 28 17 6 4 7
21 16 13 10 9 9 7 7 11 10 14 14 19 9 17 21 19 22 27 21 19 14 15 24 28 26 24 27 29 29 29 20 13 10 6 2 3 3 7 11 16 19 19
20 18 14 11 10 9 9 7 7 8 8 7 8 10 15 12 16 18 15 15 16 10 9 9 9 9 5 10 9 8 8 4 4 6 8 10 14 15 16 18 20 20 20
17 17 15 12 12 13 12 9 6 5 6 6 7 5 5 6 6 7 8 8 8 7 7 6 5 4 3 4 1 1 2 2 2 4 5 6 9 13 15 16 19 21 22
15 15 12 12 13 13 12 12 11 10 9 9 9 9 5 3 3 2 2 2 2 3 2 2 1 2 2 2 3 5 6 7 9 9 9 9 10 12 14 16 18 19 20
15 15 15 14 13 12 12 13 13 15 15 12 12 12 11 11 8 8 8 8 8 7 6 6 6 6 7 9 10 12 14 15 16 16 15 15 17 18 19 20 21 24 25
Wind_Direction
234 243 245 244 245 247 249 247 246 248 238 244 244 249 256 254 263 272 272 269 265 259 254 255 255 260 266 265 264 270 277 280 275 276 284 287 293 300 308 315 328 341 342
257 256 256 254 251 253 253 254 254 254 249 250 254 259 258 257 259 263 264 263 263 266 259 255 252 256 262 266 265 262 271 271 278 274 276 276 291 298 303 308 314 321 327
275 272 274 273 272 269 263 260 260 259 257 259 258 259 263 261 260 262 264 256 255 258 260 259 252 254 258 260 263 264 267 266 265 265 271 274 283 288 296 302 306 311 319
287 285 284 281 278 276 272 269 264 265 263 262 260 258 257 258 259 259 256 259 254 254 246 253 258 253 252 254 265 263 262 263 265 266 268 268 274 281 288 293 297 301 303
292 290 291 292 285 279 275 264 262 261 260 260 257 256 255 256 253 255 254 257 257 253 253 248 249 253 255 256 259 261 261 270 262 260 262 266 268 272 281 287 292 297 297
300 301 302 301 297 293 285 272 265 264 261 257 257 256 252 253 255 262 260 260 262 258 255 253 254 255 259 259 260 259 261 265 267 265 256 258 261 269 281 287 288 290 298
295 292 291 291 291 294 292 282 265 263 266 265 264 258 255 251 254 254 259 259 254 262 260 259 257 257 258 259 259 261 263 262 264 269 271 278 278 274 278 283 281 284 287
301 301 296 291 286 284 285 287 283 271 263 267 266 265 263 257 252 252 254 258 259 250 258 259 259 258 257 260 261 262 261 262 263 265 267 269 270 275 279 280 282 284 286
290 294 297 293 290 287 282 279 280 279 272 266 265 264 263 262 259 256 257 259 260 256 252 256 262 256 256 256 260 261 260 260 260 262 263 266 269 273 275 277 278 280 283
291 293 294 293 287 284 283 280 275 275 275 271 268 266 262 260 262 259 258 258 258 255 257 263 262 247 251 254 257 258 257 258 258 262 263 266 269 272 273 271 275 280 279
289 289 289 289 284 282 281 279 278 274 271 269 263 261 262 263 263 264 261 260 260 257 257 257 263 265 259 263 259 256 258 257 258 259 262 264 266 269 271 272 275 275 280
288 291 291 287 284 281 280 278 276 273 271 269 266 260 257 256 258 262 264 263 260 261 259 254 259 264 261 272 267 255 249 255 256 259 260 264 266 265 269 273 275 277 280
295 290 295 288 285 280 279 277 273 270 268 267 265 264 260 258 256 256 259 262 264 262 256 258 258 260 261 276 254 250 241 250 256 258 260 264 268 268 269 269 268 273 277
295 288 291 287 286 286 284 279 275 267 264 264 264 263 261 260 261 259 260 260 261 263 261 258 258 260 261 268 264 247 247 255 259 259 262 260 264 270 269 268 264 269 270
293 289 285 290 290 293 282 276 282 275 266 263 261 261 258 257 258 260 260 261 262 261 258 258 257 260 259 262 266 273 267 268 264 255 259 261 263 264 266 266 266 270 269
292 286 284 291 293 294 280 281 283 279 276 271 267 264 262 258 256 257 258 260 262 258 256 256 253 255 256 260 265 265 278 282 268 251 248 256 264 260 265 269 256 266 262
284 286 291 295 293 282 279 283 283 287 288 284 280 275 267 262 258 257 256 258 260 257 253 252 253 252 258 261 260 270 266 276 276 261 260 250 261 252 259 271 275 268 271
284 291 299 296 282 273 280 278 285 292 292 294 283 273 274 267 262 259 256 257 256 256 254 249 251 253 255 260 263 271 269 275 272 267 262 260 263 262 266 267 273 263 275
289 301 302 287 278 276 280 277 287 290 296 301 278 273 276 269 259 257 255 255 254 254 253 251 248 250 253 257 264 269 264 273 264 264 282 263 259 262 265 271 276 276 270
298 308 306 276 270 269 286 288 292 298 299 295 287 270 263 269 250 250 257 259 256 254 254 252 252 252 255 261 266 268 266 261 263 263 271 278 268 270 270 267 265 252 216
297 312 316 291 302 297 300 298 301 335 338 347 295 260 242 267 288 257 256 256 252 246 250 250 259 265 266 266 263 270 258 251 250 255 260 254 257 263 255 226 203 359 268
284 298 302 307 320 321 307 313 314 310 337 3 12 274 239 249 266 270 273 246 238 248 245 256 258 259 259 264 233 233 243 233 219 200 199 202 137 28 300 266 247 242 238
278 280 291 301 308 308 304 305 306 308 327 347 22 27 50 64 70 57 60 96 130 129 101 92 77 85 93 64 36 23 360 5 288 278 260 256 254 251 249 247 247 244 244
272 269 275 285 288 294 298 294 287 287 298 321 336 355 43 38 42 59 68 74 66 84 102 96 86 84 95 103 78 348 292 323 338 278 265 261 263 263 258 257 257 256 253
269 264 267 273 275 277 277 279 270 259 262 278 289 294 305 311 290 269 221 169 176 136 129 113 140 268 281 285 302 299 298 293 280 275 272 271 269 268 267 265 259 258 259
268 267 263 265 268 274 276 269 263 261 266 270 274 279 287 283 257 230 223 219 220 224 230 236 251 273 290 299 305 301 294 286 280 279 280 279 275 272 272 270 268 266 263